Location: Waco, TX
(31.5480°N, 97.1670°W)
Time: 20:26:39
(UTC-05:00)

ISS - Pass Details

Date: 16 August 2018
Orbit: 402 x 409 km, 51.6° (Epoch: 15 August)

Event Time Altitude Azimuth Distance (km) Brightness Sun altitude
Rises 10:42:36 0° 221° (SW) 2,299 -0.2 47.1°
Reaches altitude 10° 10:44:40 10° 219° (SW) 1,443 -1.1 47.6°
Maximum altitude 10:47:54 76° 133° (SE) 415 -2.5 48.2°
Drops below altitude 10° 10:51:09 10° 48° (NE) 1,450 -0.6 48.9°
Sets 10:53:13 0° 47° (NE) 2,311 0.3 49.3°
